Location: Lincolnton
(35.4660°N, 81.2500°W)
Time: 11:26:08
(UTC-04:00)

HST - Visible Passes

Search period start: 24 October 2014 00:00
Search period end: 02 November 2014 23:00
Orbit: 546 x 550 km, 28.5° (Epoch: 23 October)

Date Brightness Start Highest point End Pass type
(mag) Time Alt. Az. Time Alt. Az. Time Alt. Az.
24 Oct 3.4 20:56:40 10° SW 20:57:30 14° SSW 20:57:30 14° SSW visible
25 Oct 3.1 19:10:14 10° S 19:11:48 12° SSE 19:13:23 10° SE visible
25 Oct 3.0 20:49:08 10° SW 20:50:43 18° SSW 20:50:43 18° SSW visible
26 Oct 3.0 19:02:01 10° SSW 19:04:24 15° SSE 19:06:48 10° SE visible
26 Oct 2.7 20:41:40 10° SW 20:43:54 23° SSW 20:43:54 23° SSW visible
27 Oct 2.3 20:34:14 10° WSW 20:37:03 27° SSW 20:37:03 27° SSW visible
28 Oct 2.1 20:26:51 10° WSW 20:30:11 30° S 20:30:11 30° S visible
29 Oct 2.0 20:19:29 10° WSW 20:23:12 31° S 20:23:18 31° S visible
30 Oct 2.0 20:12:08 10° WSW 20:15:50 30° S 20:16:25 29° SSE visible
31 Oct 2.2 20:04:49 10° WSW 20:08:27 29° S 20:09:34 25° SSE visible
01 Nov 2.4 19:57:32 10° WSW 20:01:03 26° S 20:02:45 20° SSE visible
02 Nov 2.7 18:50:17 10° WSW 18:53:38 23° SSW 18:55:59 15° SSE visible
